This is the latest recevied weather packets stored in our database for station/object W1QED. If no packets are shown the sender has not sent any weather packets the latest 1 day(s).
| Time | Temp. | Humidity | Pressure | Rain* | Wind** | Luminosity | Snow |
|---|---|---|---|---|---|---|---|
| 1778060713 | 15.56° C | 62% | 1008.7 hPa | 0 mm | 1.79 m/s, 191° | - | - |
| 1778060412 | 15.56° C | 61% | 1008.8 hPa | 0 mm | 1.34 m/s, 218° | - | - |
| 1778060113 | 15.56° C | 61% | 1008.8 hPa | 0 mm | 1.34 m/s, 185° | - | - |
| 1778059811 | 15.56° C | 62% | 1008.9 hPa | 0 mm | 1.79 m/s, 204° | - | - |
| 1778059514 | 15.56° C | 61% | 1008.7 hPa | 0 mm | 1.34 m/s, 252° | - | - |
| 1778059210 | 15.56° C | 62% | 1008.7 hPa | 0 mm | 1.79 m/s, 196° | - | - |
| 1778058909 | 15.56° C | 62% | 1008.7 hPa | 0 mm | 1.79 m/s, 200° | - | - |
| 1778058608 | 15.56° C | 61% | 1008.9 hPa | 0 mm | 0.89 m/s, 165° | - | - |
| 1778058307 | 15.56° C | 62% | 1008.9 hPa | 0 mm | 2.24 m/s, 177° | - | - |
| 1778058006 | 15.56° C | 61% | 1008.9 hPa | 0 mm | 0.89 m/s, 230° | - | - |
| 1778057706 | 15.56° C | 61% | 1008.9 hPa | 0 mm | 1.34 m/s, 208° | - | - |
| 1778057405 | 15.56° C | 61% | 1008.9 hPa | 0 mm | 2.24 m/s, 230° | - | - |
| 1778057104 | 15.56° C | 61% | 1008.9 hPa | 0 mm | 0.45 m/s, 196° | - | - |
| 1778056803 | 15.56° C | 61% | 1008.9 hPa | 0 mm | 1.34 m/s, 157° | - | - |
| 1778056502 | 15.56° C | 61% | 1008.9 hPa | 0 mm | 0.45 m/s, 221° | - | - |
| 1778056261 | 15.56° C | 60% | 1008.9 hPa | 0 mm | 0.45 m/s, 226° | - | - |
| 1778055961 | 15.56° C | 60% | 1008.9 hPa | 0 mm | 0.89 m/s, 239° | - | - |
| 1778055658 | 16.11° C | 60% | 1008.9 hPa | 0 mm | 0.89 m/s, 211° | - | - |
| 1778055419 | 16.11° C | 60% | 1009 hPa | 0 mm | 1.79 m/s, 206° | - | - |
| 1778055056 | 16.11° C | 60% | 1009 hPa | 0 mm | 1.34 m/s, 226° | - | - |
| 1778054756 | 16.11° C | 60% | 1009 hPa | 0 mm | 1.34 m/s, 209° | - | - |
| 1778054456 | 16.11° C | 59% | 1009 hPa | 0 mm | 0.89 m/s, 197° | - | - |
| 1778054155 | 16.11° C | 59% | 1009 hPa | 0 mm | 0.89 m/s, 215° | - | - |
| 1778053852 | 16.11° C | 58% | 1009 hPa | 0 mm | 0.89 m/s, 221° | - | - |
| 1778053556 | 16.11° C | 57% | 1009 hPa | 0 mm | 0.45 m/s, 213° | - | - |
* Rain latest hour (hover to see other rain measurements)
** Current wind speed in m/s (hover to see current wind gust speed)